Regional Weather Roundup
Issued by NWS

Home | Current Version | Previous Version | Graphics & Text | Print | Product List | Glossary On
Versions: 1 2 3 4 5 6 7 8 9 10 11 12 13 14 15 16 17 18 19 20 21 22 23 24 25 26 27 28 29 30 31 32 33 34 35 36 37 38 39 40 41 42 43 44 45 46 47 48 49 50
343
ASUS43 KTOP 131859
RWRKS

WEATHER ROUNDUP FOR KANSAS
NATIONAL WEATHER SERVICE GOODLAND KS
100 PM CST SAT FEB 13 2016

NOTE:  "FAIR" INDICATES FEW OR NO CLOUDS BELOW 12,000 FEET WITH NO
SIGNIFICANT WEATHER AND/OR OBSTRUCTIONS TO VISIBILITY.

KSZ001>006-013>018-027>032-041>047-132000-
NORTHWEST KANSAS

CITY           SKY/WX    TMP DP  RH WIND       PRES   REMARKS
GOODLAND       FOG       27  26  96 S16       30.09F VSB 1/2 WCI  15
HAYS           CLOUDY    34  12  40 SE15G21   30.26F WCI  24
HILL CITY      CLOUDY    29  18  63 S13       30.24F WCI  19
RUSSELL        CLOUDY    32  12  43 SE13G23   30.27F WCI  22
$$

KSZ061>065-074>080-084>089-132000-
SOUTHWEST KANSAS

CITY           SKY/WX    TMP DP  RH WIND       PRES   REMARKS
DODGE CITY     CLOUDY    37  20  50 SE22G29   30.18F WCI  26
ELKHART          N/A     63  31  30 S21         N/A
GARDEN CITY    CLOUDY    38  26  62 S16       30.14F WCI  29
GREAT BEND     CLOUDY    34  10  37 SE18G25   30.27F WCI  23
LIBERAL        SUNNY     48  34  57 S21G29    30.13F
$$

KSZ066>073-081>083-090>101-132000-
SOUTHEAST KANSAS

CITY           SKY/WX    TMP DP  RH WIND       PRES   REMARKS
CHANUTE        PTSUNNY   34   1  24 E10       30.43F WCI  26
COFFEYVILLE    SUNNY     39   4  23 E9        30.43F
HUTCHINSON     MOSUNNY   35   6  29 SE15      30.33F WCI  25
MEDICINE LODGE   N/A     38  15  39 SE13G21   30.27F WCI  30
NEWTON         SUNNY     36   5  27 S14G21    30.35F WCI  27
PARSONS        SUNNY     37   3  24 SE8       30.43F
WICHITA INTL   CLOUDY    38   1  21 SE12      30.34F WCI  30
WICHITA JABRA  MOSUNNY   35   0  22 SE15      30.35F WCI  25
WINFIELD       CLOUDY    39   2  21 SE15      30.35F WCI  31
$$

KSZ007>012-019>026-033>040-048>060-102>105-132000-
NORTHEAST KANSAS

CITY           SKY/WX    TMP DP  RH WIND       PRES   REMARKS
CONCORDIA      CLOUDY    24   3  40 SE13      30.37F WCI  12
EMPORIA        PTSUNNY   32   1  26 SE12      30.41F WCI  23
LAWRENCE       CLOUDY    22   2  42 E15       30.50F WCI   9
MANHATTAN      CLOUDY    27   4  37 SE10      30.43F WCI  17
OLATHE IND     CLOUDY    20   0  41 E14       30.49F WCI   7
OLATHE EXE     CLOUDY    19   0  43 E10       30.49F WCI   7
SALINA         CLOUDY    33   4  29 SE14      30.37F WCI  23
TOPEKA BILLARD CLOUDY    24   1  36 E13       30.48F WCI  12
TOPEKA FORBES  CLOUDY    24   2  38 E10       30.45F WCI  14
$$




USA.gov is the U.S. government's official web portal to all federal, state and local government web resources and services.